カタログに戻る

STARLINK-11422

運用中通信VLEO
NORAD 61944·PAYLOAD·🇺🇸 United States

打ち上げ Nov 14, 2024 から Vandenberg Space Force Base

Loading…

次のパス (今後24時間)

TLE

最新Source: CelesTrak SupGP

元期: Sep 14, 2026, 21:21 UTC

1 61944C 24209F   26257.89006944 -.00039734  00000+0 -32721-3 0  2575
2 61944  53.1571 158.7996 0001098  92.2215 168.8918 15.69736499    13

AllMySatでSTARLINK-11422をリアルタイム追跡

Download on the App Store